Location: Newark
(34.1333°N, 7.9667°W)
Time: 16:29:38
(UTC+00:00)

YUBILEINY - Visible Passes

Search period start: 31 May 2023 00:00
Search period end: 10 June 2023 00:00
Orbit: 1478 x 1508 km, 82.5° (Epoch: 31 May)

Date Brightness Start Highest point End Pass type
(mag) Time Alt. Az. Time Alt. Az. Time Alt. Az.
01 Jun ? 04:35:39 10° SE 04:42:42 28° E 04:49:45 10° NNE visible
02 Jun ? 03:50:37 10° E 03:53:55 13° ENE 03:57:13 10° NE visible
03 Jun ? 04:51:44 10° SSE 04:59:54 44° E 05:08:06 10° NNE visible
04 Jun ? 04:04:34 10° SE 04:10:53 23° E 04:17:12 10° NE visible
06 Jun ? 04:20:13 10° SSE 04:28:01 37° E 04:35:49 10° NNE visible
07 Jun ? 03:33:44 10° ESE 03:39:06 18° E 03:44:27 10° NE visible
08 Jun ? 04:36:44 10° SSE 04:45:18 58° E 04:53:53 10° NNE visible
09 Jun ? 03:48:53 10° SE 03:56:10 30° E 04:03:26 10° NNE visible
